Location: Dungeness
(50.9167°N, 0.9833°E)
Time: 09:47:10
(UTC+00:00)

Daily predictions for brighter satellites

Satellite Brightness Start Highest point End
(mag) Time Altitude Azimuth Time Altitude Azimuth Time Altitude Azimuth
Cosmos 2150 Rocket 4.3 20:30:13 10° S 20:35:27 52° ESE 20:40:45 10° NNE
ERS-1 Rocket 3.1 20:33:08 10° SSE 20:38:06 68° ENE 20:43:06 10° N
Cosmos 614 Rocket 4.0 20:35:34 10° NNW 20:40:40 78° ENE 20:45:43 10° SSE
COSMOS 2406 4.1 20:40:08 10° NNW 20:45:30 40° NE 20:50:48 10° ESE
IRS-1C Rocket 4.2 20:43:49 10° SSE 20:49:06 86° WSW 20:54:25 10° NNW
Cosmos 1544 Rocket 3.5 20:46:34 10° N 20:50:56 88° E 20:55:14 10° S
USA 307 3.0 20:47:18 10° WNW 20:51:12 65° NNE 20:54:56 10° E
Cosmos 1437 Rocket 2.7 20:49:04 10° S 20:52:35 53° E 20:56:10 10° NNE
Meteor 1-11 4.4 20:47:22 10° SSW 20:53:05 85° WNW 20:58:46 10° NNE
SPOT 3 Rocket 3.7 20:51:13 10° SSE 20:56:21 63° ENE 21:01:32 10° N
Spot 2 Rocket 3.6 20:51:17 10° SSE 20:56:22 73° ENE 21:01:28 10° NNW
Cosmos 2084 Rocket 3.2 20:54:17 10° NW 20:58:17 83° SW 21:01:57 12° SE
Cosmos 2341 Rocket 4.1 20:53:41 10° S 20:59:55 68° E 21:06:16 10° NNE
ATLAS 3B R/B 3.5 20:55:33 10° S 21:01:46 34° ESE 21:08:23 10° NE
Okean-O 4.0 20:58:52 10° SSW 21:02:57 36° W 21:07:02 10° NNW
Cosmos 1812 4.1 21:05:08 10° NNE 21:07:57 21° ENE 21:10:25 12° ESE
BREEZE-M DEB (TANK) 4.3 21:07:52 10° W 21:10:48 36° SSW 21:17:26 12° SE
Cosmos 1727 Rocket 4.4 21:04:47 10° N 21:10:57 50° ENE 21:16:30 12° SSE
Lacrosse 5 3.1 21:07:20 10° WNW 21:12:09 43° N 21:17:00 10° ENE
Cosmos 1833 Rocket 3.7 21:09:57 10° NW 21:15:13 40° WSW 21:20:26 10° S
USA 215 3.6 21:10:36 11° SE 21:16:44 57° SW 21:23:12 10° WNW
Cosmos 2228 3.3 21:13:08 10° NNW 21:17:17 64° W 21:21:24 10° S
NOSS 8 (F) 4.4 21:16:31 10° NW 21:19:31 71° NE 21:22:21 15° SE
MetOp-A 4.2 21:16:00 14° SE 21:19:32 43° ENE 21:23:24 10° N
Cosmos 1726 Rocket 4.1 21:18:57 10° N 21:23:05 42° ENE 21:26:14 16° SE
Cosmos 1606 Rocket 3.8 21:19:15 10° N 21:23:31 55° ENE 21:26:52 16° SSE
Ariane Rocket 3.1 21:19:13 10° S 21:24:16 75° WSW 21:29:22 10° NNW
CZ-4C R/B 3.2 21:18:38 10° NW 21:25:19 64° NE 21:33:22 11° ESE
Gbstr 26 Del rocket 3.3 21:20:58 10° WNW 21:25:29 88° SSW 21:31:05 10° ESE
Cosmos 44 4.5 21:29:35 10° WSW 21:34:38 49° NW 21:39:28 10° NE
NOSS 3-1 (C) 3.1 21:31:05 10° SW 21:36:04 88° NW 21:42:13 10° NE
Cosmos 2366 rocket 4.1 21:32:17 10° SSW 21:38:25 81° W 21:44:37 10° N
Geosat 4.5 21:34:38 10° NE 21:39:21 39° ESE 21:43:33 13° S
USA 290 2.1 21:38:15 10° SSW 21:41:25 88° WNW 21:44:36 10° NNE
Cosmos 2082 Rocket 2.2 21:36:29 10° NNW 21:42:08 78° WSW 21:46:29 17° SSE
Terra 2.9 21:38:57 10° SSW 21:43:22 39° W 21:47:48 10° NNW
MOS 1 Rocket 4.4 21:39:39 10° SSW 21:43:47 36° W 21:47:48 10° NNW
SL-8 Rocket 4.4 21:38:18 10° SSW 21:44:33 67° WNW 21:50:53 10° N
Landsat 5 3.7 21:42:31 10° NNE 21:46:52 57° E 21:50:07 17° S
Cosmos 2369 Rocket 3.8 21:46:35 14° ESE 21:48:19 16° E 21:51:33 10° ENE
Cosmos 1536 Rocket 4.0 21:45:06 10° SSW 21:49:21 59° WNW 21:53:38 10° N
Cosmos 2278 Rocket 2.3 21:44:15 10° SSW 21:49:55 82° WNW 21:55:37 10° NNE
ISS -3.0 21:49:42 10° W 21:52:47 36° SSW 21:54:01 26° SSE
ATLAS 5 CENTAUR R/B 4.5 21:50:26 10° NW 21:52:48 15° N 21:55:26 10° NNE
CENTAUR R/B 4.1 21:46:09 10° NW 21:53:27 45° NNE 22:01:57 10° E
Cosmos 1269 Rocket 4.5 21:50:12 10° NNW 21:55:24 57° WSW 21:59:25 17° S
Cosmos 407 Rocket 3.9 21:51:02 10° NNW 21:56:08 53° ENE 21:59:43 19° SE
Cosmos 1782 4.3 21:54:01 10° NNE 21:57:07 23° ENE 21:58:58 17° ESE
Cosmos 1943 Rocket 2.1 21:52:19 10° SSW 21:57:57 79° ESE 22:03:36 10° NNE
NOSS 8 (H) 4.4 21:55:59 10° NW 21:59:02 66° SW 22:00:52 26° SSE
USA 305 2.8 21:56:54 10° WNW 22:00:25 44° SW 22:01:39 29° SSE
Cosmos 2058 3.4 22:01:28 24° SSE 22:03:28 42° E 22:07:21 10° NNE
Cosmos 1000 Rocket 4.4 21:58:51 10° N 22:05:02 83° E 22:09:29 20° SSE
Cosmos 2058 Rocket 3.2 22:01:12 10° N 22:05:32 60° ENE 22:07:57 25° SSE
Cosmos 1140 Rocket 3.4 22:00:57 10° NNW 22:06:08 89° E 22:09:25 23° SSE
Cosmos 2123 Rocket 4.2 22:00:29 10° N 22:06:45 61° ENE 22:11:02 21° SSE
Iridium 82 4.4 22:05:53 24° S 22:07:54 85° E 22:11:24 10° N
ULPM Upper Stage 3.9 22:08:39 10° WNW 22:12:35 33° SW 22:14:41 21° S
COSMOS 2455 3.9 22:11:01 10° NNW 22:16:44 41° NE 22:22:16 11° ESE
NOSS 3-1 (A) 3.1 22:12:28 10° SW 22:17:29 88° SE 22:23:38 10° NE
SL-08 R/B 4.4 22:12:49 17° S 22:17:41 82° E 22:23:51 10° NNE
Cosmos-2242 3.8 22:14:20 10° N 22:18:15 37° ENE 22:20:13 24° ESE
USA 307 2.9 22:20:39 10° WNW 22:24:21 45° SW 22:25:22 34° S
Lacrosse 5 rocket 2.4 22:26:12 24° ESE 22:26:12 24° ESE 22:28:45 10° ENE
SL-8 R/B 4.1 22:23:00 10° SW 22:27:26 38° SSE 22:31:52 10° E
COSMOS 2406 3.9 22:24:30 10° NW 22:29:53 45° WSW 22:33:20 21° S
Cosmos 1544 2.9 22:31:33 37° NNW 22:31:33 37° NNW 22:32:53 10° N
Cosmos 1934 Rocket 4.0 22:27:33 22° S 22:31:39 69° E 22:37:47 10° NNE
USA 281 4.4 22:26:42 10° ESE 22:32:32 35° NE 22:38:23 10° NNW
ARIANE 5 R/B 2.6 22:33:04 29° SSE 22:35:20 86° WSW 22:39:52 10° NNW
PSLV R/B 4.2 22:34:42 10° NNE 22:38:36 50° E 22:39:57 34° SSE
Cosmos 1812 3.9 22:39:32 10° NNW 22:42:43 31° W 22:44:24 20° SW
Cosmos 2251 Rocket 3.5 22:38:35 10° NNW 22:43:57 79° WSW 22:46:43 29° SSE
Cosmos 1758 Rocket 4.3 22:42:44 29° SE 22:44:08 38° E 22:48:08 10° NNE
Cosmos 1238 Rocket 2.8 22:41:16 10° N 22:45:01 83° W 22:46:48 34° S
Cosmos 1626 Rocket 3.7 22:43:41 33° SSE 22:45:20 56° E 22:49:33 10° NNE
USA 229 DEB 3.6 22:42:43 19° SSW 22:47:08 56° SE 22:53:45 10° NE
USA 229 3.6 22:42:53 19° SSW 22:47:15 56° SE 22:53:50 10° NE
Cosmos 1892 Rocket 4.3 22:44:34 17° SSW 22:47:47 51° WNW 22:52:08 10° N
Cosmos 1656 Rocket 3.8 22:45:29 26° S 22:48:24 57° ESE 22:53:51 10° NE
Cosmos 1515 3.4 22:45:10 10° N 22:48:39 74° E 22:49:33 46° SSE
ALOS 2 3.1 22:47:25 28° SE 22:49:25 51° ENE 22:53:41 10° N
ATLAS 3B R/B 3.1 22:44:42 10° SW 22:51:59 76° NW 22:59:46 10° NE
Gblst 52 Del rocket 4.3 22:46:42 10° SW 22:52:08 48° SSE 22:57:24 10° ENE
SL-27 R/B 3.4 22:49:50 10° N 22:52:17 26° ENE 22:52:50 25° E
Cosmos 2056 Rocket 4.1 22:53:41 29° SSE 22:55:33 39° ESE 23:00:23 10° NE
Lacrosse 5 2.7 22:50:55 10° WNW 22:55:52 51° NNE 23:00:50 10° E
Cosmos 2221 3.8 22:56:02 10° N 22:59:50 30° ENE 23:01:40 22° ESE
Okean 1-7 Rocket 4.0 22:59:21 34° SE 23:00:47 48° E 23:05:02 10° NNE
Exosat Rocket 3.6 22:56:51 10° NNW 23:02:20 74° ENE 23:04:54 29° SE
SeaSat 1 2.8 23:00:05 24° SE 23:02:59 61° NE 23:07:50 10° NNW
Cosmos 482 Debris 4.4 22:59:41 10° W 23:04:31 76° N 23:07:57 10° E
Cosmos 1833 4.4 23:00:37 10° NNW 23:06:19 67° ENE 23:09:44 25° SE
Cosmos 2285 Rocket 4.0 23:00:49 10° NNW 23:07:17 85° WSW 23:10:49 29° SSE
Cosmos 1190 Rocket 3.9 23:02:06 10° NNW 23:07:20 79° WSW 23:09:42 33° SSE
Lacrosse 4 Rocket 1.7 23:08:59 40° SE 23:09:37 44° ESE 23:13:33 10° NE
Cosmos 2297 3.7 23:06:47 25° SSW 23:10:13 76° ESE 23:15:56 10° NNE
Gbstr 26 Del rocket 4.0 23:07:20 10° W 23:12:00 41° SSW 23:13:51 32° S
Cosmos 676 Rocket 4.0 23:06:51 10° NNW 23:12:03 75° ENE 23:14:35 31° SE
CZ-4C R/B 3.5 23:07:04 10° NW 23:13:54 47° WSW 23:18:25 26° S
Cosmos 1535 Rocket 4.5 23:11:42 26° SSW 23:15:23 84° W 23:21:38 10° N
CZ-2C R/B 4.5 23:11:41 10° N 23:16:12 51° WNW 23:19:19 19° SW
Meteor 2-3 Rocket 3.7 23:13:44 30° S 23:16:43 83° E 23:22:24 10° NNE
H-2A R/B 2.3 23:15:57 44° S 23:17:01 67° WSW 23:20:48 10° NNW
Cosmos 1605 Rocket 3.9 23:17:31 28° S 23:20:58 89° W 23:27:12 10° N
Cosmos 1271 Rocket 3.2 23:22:49 32° SW 23:24:14 53° WNW 23:27:59 10° N
Cosmos 2082 Rocket 4.3 23:22:25 10° WNW 23:25:16 14° W 23:28:06 10° SW
CRYOSAT 2 4.4 23:25:03 10° N 23:29:56 79° W 23:32:04 34° SSW
Cosmos 1378 3.6 23:28:13 10° NNW 23:31:13 37° W 23:31:36 36° WSW
Cosmos 1666 2.3 23:31:01 60° SE 23:31:24 68° E 23:34:48 10° NNE
Cosmos 2369 Rocket 2.1 23:28:19 27° SSW 23:31:28 85° ESE 23:37:08 10° NNE
Cosmos 1782 3.9 23:29:25 10° NNW 23:32:50 33° W 23:33:54 27° SW
Cosmos 1461 2.5 23:29:10 10° NW 23:32:59 75° SW 23:33:48 52° SSE
H-2A R/B 3.2 23:29:55 10° NE 23:33:22 26° E 23:34:09 24° ESE
Cosmos 1933 3.9 23:30:09 10° NNW 23:33:56 45° W 23:35:00 35° SW
Cosmos 2100 Rocket 4.5 23:31:25 28° SSE 23:34:23 48° E 23:40:20 10° NNE
ATLAS 5 CENTAUR R/B 4.2 23:34:49 10° NNW 23:38:02 21° NNE 23:41:47 10° ENE
Meteor 1-26 Rocket 4.3 23:35:17 10° NNW 23:40:51 70° W 23:43:30 33° S
Cosmos 1500 2.9 23:40:37 56° SW 23:41:10 71° WNW 23:44:34 10° N
Cosmos 1862 3.3 23:40:40 44° SW 23:41:45 69° WNW 23:45:37 10° N
Cosmos 1943 Rocket 4.2 23:37:38 10° W 23:42:19 26° NW 23:47:00 10° NNE
CENTAUR R/B 3.2 23:36:51 10° NW 23:44:59 84° SW 23:52:09 19° SE
Spot 2 4.2 23:44:22 40° SSW 23:45:40 60° WSW 23:49:50 10° NNW
Cosmos 968 Rocket 4.3 23:41:01 10° NNW 23:46:06 46° ENE 23:49:31 19° SE
USA 59 Rocket 1.2 23:48:40 17° E 23:48:40 17° E 23:49:54 10° ENE
Cosmos 2173 Rocket 4.2 23:46:04 30° SSE 23:48:58 58° E 23:54:57 10° NNE
Cosmos 1371 Rocket 4.1 23:46:20 29° SSW 23:49:08 82° WNW 23:54:30 10° NNE
Cosmos 1602 3.8 23:48:39 47° SE 23:49:10 52° E 23:52:44 10° NNE
Cosmos 2297 Rocket 3.9 23:45:30 10° NNW 23:50:25 29° NE 23:55:18 10° ESE
Cosmos 1825 Rocket 3.5 23:50:15 44° S 23:51:31 74° E 23:55:50 10° NNE
